Daisytown, PA

5:35 PM EDT on May 03, 2015 (GMT -0400)
Allegheny County | | Change Station
CLOSE
Current Station
Airport
Location: Pittsburgh Allegheny Co.,
Elevation: 1253 ft
Nearby Weather Stations

Elev 1253 ft 40.35 °N, 79.92 °W | Updated 42 minutes ago

Partly Cloudy
Partly Cloudy
75 °F
Feels Like 75 °F
N
6
Wind Variable Wind from West

Today
High -- | Low -- °F
--% Chance of Precip.
Yesterday
High -- | Low -- °F
Precip. -- in
6:17 AM 8:16 PM
Full, 100% visible
Pressure 30.09 in
Visibility 10.0 miles
Clouds Few 8000 ft
Scattered Clouds 10000 ft
Dew Point 35 °F
Humidity 23%
Rainfall 0.00 in
Snow Depth Not available.
UV 4 out of 12
Pollen 10.70 out of 12
Air Quality Not available.
Flu Activity Sporadic
METAR KAGC 032053Z AUTO 28005KT 10SM FEW080 SCT100 24/02 A3009 RMK AO2 SLP189 T02390017 58009 TSNO $

More Conditions Fewer Conditions

Pressure 30.09 in
Visibility 10.0 miles
Clouds Few 8000 ft
Scattered Clouds 10000 ft
Dew Point 35 °F
Humidity 23%
Rainfall 0.00 in
Snow Depth Not available.
UV 4 out of 12
Pollen 10.70 out of 12
Air Quality Not available.
Flu Activity Sporadic
METAR KAGC 032053Z AUTO 28005KT 10SM FEW080 SCT100 24/02 A3009 RMK AO2 SLP189 T02390017 58009 TSNO $

More Conditions Fewer Conditions

Nepal has a long way to go to dig out and rebuild from a devastating earthquake. We have teamed up with several charities and organizations to make contributing to the relief effort as easy as possible.
How you can help: Portlight Strategies | Red Cross

10-Day Weather Forecast

Almanac

Astronomy

May. 03, 2015 Rise Set
Actual Time
Civil Twilight
Nautical Twilight
Astronomical Twilight
Moon
Length of Visible Light
Length of Day
Tomorrow will be .
, % of the Moon is Illuminated

Today's Extremes

State Highs State Lows

Community

WunderPhotos

Upload Photos

1,818,377 photos uploaded!

WunderBlogs® & News

Nearby

Air Quality

  Air Quality AQ Index Pollutant
Not available.

Snow Depth

Station Depth Elevation

Earthquake Activity

City Distance Mag. Time & Date
Minimum magnitude displayed is 2.5.

Coastal Water Temperatures

Place Temperature

Stations

Nearby Weather Stations

Station Location Temp. Windchill Dew Point Humidity Wind Precip. Elev Updated Type